| time (UTC) | temp C | wind direction | speed KPH | gust KPH | rain 1hr cm | rain 24hr cm | rain mn cm | humidity % | barometer mb |
| 20260902113526 | 23 | 192 | 0.0 | 1.6 | 0.00 | 0.00 | 0.00 | 84 | 1015.6 |
| 20260902113025 | 23 | 192 | 0.0 | 1.6 | 0.00 | 0.00 | 0.00 | 84 | 1015.7 |
| 20260902112504 | 23 | 192 | 0.0 | 1.6 | 0.00 | 0.00 | 0.00 | 84 | 1015.6 |
| 20260902112004 | 23 | 192 | 1.6 | 1.6 | 0.00 | 0.00 | 0.00 | 84 | 1015.5 |
| 20260902111525 | 23 | 192 | 1.6 | 1.6 | 0.00 | 0.00 | 0.00 | 84 | 1015.5 |
| 20260902111004 | 23 | 192 | 0.0 | 1.6 | 0.00 | 0.00 | 0.00 | 84 | 1015.5 |
| 20260902110504 | 23 | 0 | 0.0 | 0.0 | 0.00 | 0.00 | 0.00 | 83 | 1015.5 |
| 20260902110007 | 23 | 192 | 0.0 | 1.6 | 0.00 | 0.00 | 0.00 | 83 | 1015.5 |
| 20260902105525 | 23 | 192 | 0.0 | 1.6 | 0.00 | 0.00 | 0.00 | 83 | 1015.5 |
| 20260902105004 | 23 | 192 | 0.0 | 1.6 | 0.00 | 0.00 | 0.00 | 83 | 1015.5 |
| 20260902104525 | 23 | 192 | 0.0 | 1.6 | 0.00 | 0.00 | 0.00 | 83 | 1015.5 |
| 20260902104025 | 23 | 0 | 0.0 | 0.0 | 0.00 | 0.00 | 0.00 | 83 | 1015.6 |
| 20260902103504 | 23 | 192 | 0.0 | 1.6 | 0.00 | 0.00 | 0.00 | 83 | 1015.6 |
| 20260902103004 | 23 | 192 | 0.0 | 1.6 | 0.00 | 0.00 | 0.00 | 83 | 1015.5 |
| 20260902102504 | 23 | 192 | 0.0 | 1.6 | 0.00 | 0.00 | 0.00 | 82 | 1015.4 |
| 20260902102004 | 23 | 192 | 0.0 | 1.6 | 0.00 | 0.00 | 0.00 | 82 | 1015.5 |
| 20260902101504 | 23 | 192 | 0.0 | 1.6 | 0.00 | 0.00 | 0.00 | 82 | 1015.4 |
| 20260902101004 | 23 | 192 | 1.6 | 3.2 | 0.00 | 0.00 | 0.00 | 82 | 1015.3 |
| 20260902100504 | 23 | 192 | 1.6 | 3.2 | 0.00 | 0.00 | 0.00 | 82 | 1015.3 |
| 20260902100004 | 24 | 192 | 1.6 | 3.2 | 0.00 | 0.00 | 0.00 | 82 | 1015.4 |
| 20260902095504 | 24 | 192 | 1.6 | 3.2 | 0.00 | 0.00 | 0.00 | 82 | 1015.2 |
| 20260902095025 | 24 | 192 | 1.6 | 3.2 | 0.00 | 0.00 | 0.00 | 81 | 1015.2 |
| 20260902094525 | 24 | 192 | 1.6 | 3.2 | 0.00 | 0.00 | 0.00 | 81 | 1015.3 |
| 20260902094004 | 24 | 192 | 1.6 | 6.4 | 0.00 | 0.00 | 0.00 | 81 | 1015.3 |
| 20260902093525 | 24 | 194 | 3.2 | 6.4 | 0.00 | 0.00 | 0.00 | 81 | 1015.3 |
| 20260902093004 | 24 | 195 | 1.6 | 6.4 | 0.00 | 0.00 | 0.00 | 81 | 1015.3 |
| 20260902092504 | 24 | 195 | 1.6 | 6.4 | 0.00 | 0.00 | 0.00 | 81 | 1015.3 |
| 20260902092004 | 24 | 195 | 1.6 | 3.2 | 0.00 | 0.00 | 0.00 | 81 | 1015.4 |
| 20260902091525 | 24 | 195 | 1.6 | 3.2 | 0.00 | 0.00 | 0.00 | 80 | 1015.3 |
| 20260902091004 | 24 | 195 | 1.6 | 3.2 | 0.00 | 0.00 | 0.00 | 80 | 1015.4 |
| 20260902090504 | 24 | 195 | 1.6 | 3.2 | 0.00 | 0.00 | 0.00 | 80 | 1015.4 |
| 20260902090005 | 24 | 195 | 0.0 | 3.2 | 0.00 | 0.00 | 0.00 | 80 | 1015.4 |
| 20260902085525 | 25 | 195 | 0.0 | 1.6 | 0.00 | 0.00 | 0.00 | 80 | 1015.4 |
| 20260902085004 | 25 | 195 | 1.6 | 3.2 | 0.00 | 0.00 | 0.00 | 79 | 1015.4 |
| 20260902084504 | 25 | 195 | 1.6 | 3.2 | 0.00 | 0.00 | 0.00 | 79 | 1015.4 |
| 20260902084004 | 25 | 195 | 1.6 | 3.2 | 0.00 | 0.00 | 0.00 | 79 | 1015.4 |
| 20260902083503 | 25 | 195 | 1.6 | 3.2 | 0.00 | 0.00 | 0.00 | 79 | 1015.4 |
| 20260902083004 | 25 | 195 | 0.0 | 3.2 | 0.00 | 0.00 | 0.00 | 79 | 1015.4 |
| 20260902082504 | 25 | 195 | 0.0 | 1.6 | 0.00 | 0.00 | 0.00 | 78 | 1015.5 |
| 20260902082004 | 25 | 195 | 0.0 | 1.6 | 0.00 | 0.00 | 0.00 | 78 | 1015.5 |
| 20260902081503 | 25 | 195 | 0.0 | 1.6 | 0.00 | 0.00 | 0.00 | 78 | 1015.5 |
| 20260902081003 | 25 | 195 | 0.0 | 1.6 | 0.00 | 0.00 | 0.00 | 78 | 1015.5 |
| 20260902080504 | 25 | 195 | 0.0 | 1.6 | 0.00 | 0.00 | 0.00 | 78 | 1015.6 |
| 20260902080004 | 25 | 195 | 0.0 | 1.6 | 0.00 | 0.00 | 0.00 | 78 | 1015.5 |
| 20260902075524 | 25 | 0 | 0.0 | 0.0 | 0.00 | 0.00 | 0.00 | 77 | 1015.6 |
| 20260902075004 | 26 | 0 | 0.0 | 0.0 | 0.00 | 0.00 | 0.00 | 77 | 1015.6 |
| 20260902074525 | 26 | 195 | 0.0 | 1.6 | 0.00 | 0.00 | 0.00 | 77 | 1015.4 |
| 20260902074004 | 26 | 195 | 0.0 | 1.6 | 0.00 | 0.00 | 0.00 | 76 | 1015.5 |
| 20260902073504 | 26 | 195 | 0.0 | 1.6 | 0.00 | 0.00 | 0.00 | 75 | 1015.6 |
| 20260902073025 | 26 | 195 | 0.0 | 1.6 | 0.00 | 0.00 | 0.00 | 75 | 1015.6 |
| 20260902072504 | 26 | 195 | 0.0 | 1.6 | 0.00 | 0.00 | 0.00 | 75 | 1015.6 |
| 20260902072025 | 26 | 195 | 0.0 | 3.2 | 0.00 | 0.00 | 0.00 | 75 | 1015.6 |
| 20260902071525 | 26 | 195 | 1.6 | 3.2 | 0.00 | 0.00 | 0.00 | 75 | 1015.6 |
| 20260902071025 | 26 | 195 | 1.6 | 3.2 | 0.00 | 0.00 | 0.00 | 75 | 1015.6 |
| 20260902070504 | 26 | 195 | 1.6 | 3.2 | 0.00 | 0.00 | 0.00 | 75 | 1015.6 |
| 20260902070005 | 27 | 195 | 1.6 | 3.2 | 0.00 | 0.00 | 0.00 | 74 | 1015.6 |
| 20260902065504 | 27 | 195 | 1.6 | 3.2 | 0.00 | 0.00 | 0.00 | 74 | 1015.6 |
| 20260902065003 | 27 | 195 | 0.0 | 3.2 | 0.00 | 0.00 | 0.00 | 74 | 1015.7 |
| 20260902064504 | 27 | 195 | 1.6 | 3.2 | 0.00 | 0.00 | 0.00 | 73 | 1015.6 |
| 20260902064004 | 27 | 195 | 1.6 | 6.4 | 0.00 | 0.00 | 0.00 | 73 | 1015.6 |
| 20260902063504 | 27 | 195 | 1.6 | 6.4 | 0.00 | 0.00 | 0.00 | 73 | 1015.5 |
| 20260902063003 | 27 | 195 | 1.6 | 6.4 | 0.00 | 0.00 | 0.00 | 73 | 1015.6 |
| 20260902062503 | 27 | 195 | 0.0 | 3.2 | 0.00 | 0.00 | 0.00 | 73 | 1015.6 |
| 20260902062004 | 27 | 194 | 1.6 | 6.4 | 0.00 | 0.00 | 0.00 | 73 | 1015.7 |
| 20260902061504 | 27 | 192 | 1.6 | 6.4 | 0.00 | 0.00 | 0.00 | 72 | 1015.6 |
| 20260902061045 | 27 | 191 | 1.6 | 6.4 | 0.00 | 0.00 | 0.00 | 72 | 1015.6 |
| 20260902060504 | 27 | 191 | 1.6 | 6.4 | 0.00 | 0.00 | 0.00 | 72 | 1015.6 |
| 20260902060003 | 28 | 191 | 1.6 | 6.4 | 0.00 | 0.00 | 0.00 | 72 | 1015.6 |
| 20260902055504 | 28 | 191 | 3.2 | 6.4 | 0.00 | 0.00 | 0.00 | 72 | 1015.6 |
| 20260902055004 | 28 | 191 | 3.2 | 6.4 | 0.00 | 0.00 | 0.00 | 72 | 1015.6 |
| 20260902054525 | 28 | 189 | 3.2 | 9.7 | 0.00 | 0.00 | 0.00 | 71 | 1015.6 |
| 20260902054004 | 28 | 186 | 3.2 | 9.7 | 0.00 | 0.00 | 0.00 | 72 | 1015.6 |
| 20260902053503 | 28 | 183 | 3.2 | 9.7 | 0.00 | 0.00 | 0.00 | 71 | 1015.7 |
| 20260902053004 | 28 | 179 | 6.4 | 12.9 | 0.00 | 0.00 | 0.00 | 71 | 1015.6 |
| 20260902052525 | 28 | 172 | 6.4 | 12.9 | 0.00 | 0.00 | 0.00 | 71 | 1015.6 |
| 20260902052003 | 28 | 174 | 6.4 | 9.7 | 0.00 | 0.00 | 0.00 | 70 | 1015.6 |
| 20260902051503 | 28 | 176 | 6.4 | 9.7 | 0.00 | 0.00 | 0.00 | 70 | 1015.6 |
| 20260902051003 | 28 | 176 | 6.4 | 9.7 | 0.00 | 0.00 | 0.00 | 70 | 1015.6 |
| 20260902050504 | 28 | 168 | 6.4 | 9.7 | 0.00 | 0.00 | 0.00 | 69 | 1015.6 |
| 20260902050007 | 28 | 167 | 3.2 | 11.3 | 0.00 | 0.00 | 0.00 | 69 | 1015.6 |
| 20260902045503 | 29 | 172 | 3.2 | 11.3 | 0.00 | 0.00 | 0.00 | 68 | 1015.7 |
| 20260902045003 | 29 | 162 | 3.2 | 11.3 | 0.00 | 0.00 | 0.00 | 68 | 1015.6 |
| 20260902044503 | 29 | 146 | 3.2 | 11.3 | 0.00 | 0.00 | 0.00 | 67 | 1015.6 |
| 20260902044003 | 29 | 137 | 3.2 | 8.0 | 0.00 | 0.00 | 0.00 | 67 | 1015.5 |
| 20260902043524 | 29 | 130 | 3.2 | 8.0 | 0.00 | 0.00 | 0.00 | 67 | 1015.6 |
| 20260902043003 | 29 | 134 | 3.2 | 9.7 | 0.00 | 0.00 | 0.00 | 67 | 1015.6 |
| 20260902042503 | 29 | 141 | 3.2 | 9.7 | 0.00 | 0.00 | 0.00 | 66 | 1015.6 |
| 20260902042024 | 30 | 143 | 6.4 | 12.9 | 0.00 | 0.00 | 0.00 | 66 | 1015.6 |
| 20260902041504 | 30 | 143 | 8.0 | 16.1 | 0.00 | 0.00 | 0.00 | 66 | 1015.7 |
| 20260902041003 | 30 | 142 | 6.4 | 16.1 | 0.00 | 0.00 | 0.00 | 66 | 1015.6 |
| 20260902040503 | 30 | 157 | 6.4 | 9.7 | 0.00 | 0.00 | 0.00 | 65 | 1015.6 |
| 20260902040003 | 30 | 155 | 6.4 | 12.9 | 0.00 | 0.00 | 0.00 | 65 | 1015.5 |
| 20260902035503 | 30 | 138 | 8.0 | 16.1 | 0.00 | 0.00 | 0.00 | 65 | 1015.5 |
| 20260902035003 | 30 | 133 | 8.0 | 19.3 | 0.00 | 0.00 | 0.00 | 65 | 1015.4 |
| 20260902034503 | 30 | 130 | 6.4 | 19.3 | 0.00 | 0.00 | 0.00 | 64 | 1015.5 |
| 20260902034024 | 30 | 133 | 3.2 | 9.7 | 0.00 | 0.00 | 0.00 | 63 | 1015.4 |
| 20260902033503 | 30 | 137 | 6.4 | 9.7 | 0.00 | 0.00 | 0.00 | 62 | 1015.3 |
| 20260902033024 | 30 | 130 | 3.2 | 9.7 | 0.00 | 0.00 | 0.00 | 62 | 1015.3 |
| 20260902032503 | 30 | 116 | 3.2 | 8.0 | 0.00 | 0.00 | 0.00 | 62 | 1015.3 |
| 20260902032003 | 30 | 108 | 3.2 | 12.9 | 0.00 | 0.00 | 0.00 | 61 | 1015.1 |
| 20260902031504 | 30 | 112 | 6.4 | 12.9 | 0.00 | 0.00 | 0.00 | 61 | 1015.0 |
| 20260902031024 | 30 | 114 | 6.4 | 12.9 | 0.00 | 0.00 | 0.00 | 61 | 1014.9 |
| 20260902030503 | 30 | 118 | 6.4 | 12.9 | 0.00 | 0.00 | 0.00 | 60 | 1014.8 |
| 20260902030004 | 31 | 123 | 6.4 | 12.9 | 0.00 | 0.00 | 0.00 | 59 | 1014.8 |
| 20260902025503 | 31 | 120 | 3.2 | 12.9 | 0.00 | 0.00 | 0.00 | 58 | 1014.7 |
| 20260902025003 | 31 | 120 | 3.2 | 8.0 | 0.00 | 0.00 | 0.00 | 58 | 1014.5 |
| 20260902024503 | 31 | 118 | 3.2 | 8.0 | 0.00 | 0.00 | 0.00 | 58 | 1014.4 |
| 20260902024003 | 31 | 114 | 3.2 | 8.0 | 0.00 | 0.00 | 0.00 | 57 | 1014.2 |
| 20260902023524 | 31 | 111 | 3.2 | 9.7 | 0.00 | 0.00 | 0.00 | 57 | 1014.2 |
| 20260902023003 | 31 | 111 | 3.2 | 9.7 | 0.00 | 0.00 | 0.00 | 57 | 1014.1 |
| 20260902022503 | 31 | 120 | 3.2 | 8.0 | 0.00 | 0.00 | 0.00 | 56 | 1014.0 |
| 20260902022003 | 31 | 127 | 3.2 | 8.0 | 0.00 | 0.00 | 0.00 | 55 | 1013.8 |
| 20260902021503 | 32 | 126 | 3.2 | 8.0 | 0.00 | 0.00 | 0.00 | 55 | 1013.8 |
| 20260902021003 | 32 | 124 | 3.2 | 9.7 | 0.00 | 0.00 | 0.00 | 55 | 1013.7 |
| 20260902020503 | 32 | 125 | 6.4 | 9.7 | 0.00 | 0.00 | 0.00 | 55 | 1013.8 |
| 20260902020003 | 32 | 121 | 6.4 | 12.9 | 0.00 | 0.00 | 0.00 | 54 | 1013.7 |
| 20260902015525 | 32 | 125 | 6.4 | 12.9 | 0.00 | 0.00 | 0.00 | 54 | 1013.7 |
| 20260902015003 | 32 | 125 | 6.4 | 12.9 | 0.00 | 0.00 | 0.00 | 53 | 1013.7 |
| 20260902014503 | 32 | 117 | 6.4 | 16.1 | 0.00 | 0.00 | 0.00 | 53 | 1013.7 |
| 20260902014003 | 32 | 122 | 6.4 | 16.1 | 0.00 | 0.00 | 0.00 | 52 | 1013.5 |
| 20260902013503 | 33 | 126 | 6.4 | 12.9 | 0.00 | 0.00 | 0.00 | 51 | 1013.6 |
| 20260902013003 | 33 | 114 | 6.4 | 12.9 | 0.00 | 0.00 | 0.00 | 51 | 1013.6 |
| 20260902012524 | 33 | 112 | 6.4 | 12.9 | 0.00 | 0.00 | 0.00 | 51 | 1013.4 |
| 20260902012003 | 33 | 123 | 6.4 | 12.9 | 0.00 | 0.00 | 0.00 | 51 | 1013.4 |
| 20260902011503 | 33 | 126 | 8.0 | 17.7 | 0.00 | 0.00 | 0.00 | 51 | 1013.3 |
| 20260902011024 | 33 | 124 | 9.7 | 17.7 | 0.00 | 0.00 | 0.00 | 51 | 1013.2 |
| 20260902010503 | 33 | 124 | 9.7 | 19.3 | 0.00 | 0.00 | 0.00 | 50 | 1013.0 |
| 20260902010003 | 33 | 125 | 8.0 | 19.3 | 0.00 | 0.00 | 0.00 | 50 | 1013.1 |
| 20260902005503 | 34 | 130 | 6.4 | 16.1 | 0.00 | 0.00 | 0.00 | 49 | 1013.1 |
| 20260902005003 | 34 | 125 | 6.4 | 12.9 | 0.00 | 0.00 | 0.00 | 49 | 1013.1 |
| 20260902004503 | 34 | 117 | 6.4 | 12.9 | 0.00 | 0.00 | 0.00 | 49 | 1013.1 |
| 20260902004003 | 34 | 119 | 6.4 | 16.1 | 0.00 | 0.00 | 0.00 | 48 | 1013.1 |
| 20260902003503 | 35 | 113 | 8.0 | 19.3 | 0.00 | 0.00 | 0.00 | 48 | 1013.2 |
| 20260902003003 | 35 | 109 | 8.0 | 20.9 | 0.00 | 0.00 | 0.00 | 48 | 1013.3 |
| 20260902002503 | 35 | 110 | 9.7 | 20.9 | 0.00 | 0.00 | 0.00 | 48 | 1013.4 |
| 20260902002004 | 35 | 118 | 9.7 | 22.5 | 0.00 | 0.00 | 0.00 | 47 | 1013.4 |
| 20260902001504 | 35 | 137 | 8.0 | 22.5 | 0.00 | 0.00 | 0.00 | 47 | 1013.3 |
| 20260902001004 | 35 | 146 | 8.0 | 12.9 | 0.00 | 0.00 | 0.00 | 47 | 1013.2 |
| 20260902000504 | 35 | 148 | 9.7 | 19.3 | 0.00 | 0.00 | 0.00 | 46 | 1013.2 |
| 20260902000004 | 35 | 142 | 9.7 | 19.3 | 0.00 | 0.00 | 0.00 | 46 | 1013.2 |
| 20260901235504 | 36 | 132 | 9.7 | 19.3 | 0.00 | 0.00 | 0.00 | 46 | 1013.2 |
| 20260901235004 | 36 | 139 | 9.7 | 19.3 | 0.00 | 0.00 | 0.00 | 46 | 1013.2 |
| 20260901234504 | 36 | 138 | 9.7 | 19.3 | 0.00 | 0.00 | 0.00 | 45 | 1013.1 |
| 20260901234004 | 36 | 128 | 9.7 | 19.3 | 0.00 | 0.00 | 0.00 | 45 | 1013.1 |
| 20260901233504 | 36 | 130 | 9.7 | 22.5 | 0.00 | 0.00 | 0.00 | 45 | 1013.2 |
| 20260901233025 | 36 | 143 | 11.3 | 27.4 | 0.00 | 0.00 | 0.00 | 44 | 1013.2 |
| 20260901232504 | 37 | 142 | 11.3 | 27.4 | 0.00 | 0.00 | 0.00 | 43 | 1013.1 |
| 20260901232004 | 37 | 129 | 9.7 | 19.3 | 0.00 | 0.00 | 0.00 | 43 | 1013.0 |
| 20260901231525 | 37 | 133 | 8.0 | 20.9 | 0.00 | 0.00 | 0.00 | 42 | 1013.1 |
| 20260901231004 | 37 | 126 | 8.0 | 20.9 | 0.00 | 0.00 | 0.00 | 40 | 1013.0 |
| 20260901230504 | 37 | 100 | 8.0 | 17.7 | 0.00 | 0.00 | 0.00 | 39 | 1012.9 |
| 20260901230004 | 37 | 94 | 8.0 | 17.7 | 0.00 | 0.00 | 0.00 | 39 | 1013.0 |
| 20260901225504 | 37 | 90 | 6.4 | 16.1 | 0.00 | 0.00 | 0.00 | 39 | 1013.0 |
| 20260901225004 | 37 | 100 | 8.0 | 17.7 | 0.00 | 0.00 | 0.00 | 39 | 1013.1 |
| 20260901224504 | 38 | 105 | 9.7 | 19.3 | 0.00 | 0.00 | 0.00 | 39 | 1013.0 |
| 20260901224004 | 38 | 101 | 9.7 | 25.7 | 0.00 | 0.00 | 0.00 | 38 | 1013.0 |
| 20260901223504 | 38 | 101 | 11.3 | 27.4 | 0.00 | 0.00 | 0.00 | 38 | 1013.0 |
| 20260901223004 | 38 | 104 | 11.3 | 27.4 | 0.00 | 0.00 | 0.00 | 37 | 1013.0 |
| 20260901222504 | 38 | 92 | 8.0 | 17.7 | 0.00 | 0.00 | 0.00 | 38 | 1013.0 |
| 20260901222004 | 38 | 77 | 6.4 | 16.1 | 0.00 | 0.00 | 0.00 | 38 | 1013.0 |
| 20260901221504 | 38 | 97 | 3.2 | 11.3 | 0.00 | 0.00 | 0.00 | 38 | 1013.1 |
| 20260901221025 | 38 | 114 | 1.6 | 9.7 | 0.00 | 0.00 | 0.00 | 37 | 1013.0 |
| 20260901220525 | 38 | 113 | 3.2 | 12.9 | 0.00 | 0.00 | 0.00 | 37 | 1013.1 |
| 20260901220025 | 38 | 116 | 8.0 | 17.7 | 0.00 | 0.00 | 0.00 | 36 | 1013.1 |
| 20260901215504 | 39 | 108 | 8.0 | 17.7 | 0.00 | 0.00 | 0.00 | 36 | 1013.2 |
| 20260901215004 | 39 | 89 | 6.4 | 17.7 | 0.00 | 0.00 | 0.00 | 36 | 1013.2 |
| 20260901214504 | 39 | 35 | 3.2 | 17.7 | 0.00 | 0.00 | 0.00 | 36 | 1013.1 |
| 20260901214004 | 39 | 358 | 6.4 | 11.3 | 0.00 | 0.00 | 0.00 | 38 | 1013.1 |
| 20260901213504 | 38 | 356 | 6.4 | 9.7 | 0.00 | 0.00 | 0.00 | 38 | 1013.1 |
| 20260901213004 | 38 | 46 | 6.4 | 16.1 | 0.00 | 0.00 | 0.00 | 37 | 1013.2 |
| 20260901212504 | 38 | 121 | 3.2 | 16.1 | 0.00 | 0.00 | 0.00 | 37 | 1013.3 |
| 20260901212004 | 38 | 126 | 3.2 | 16.1 | 0.00 | 0.00 | 0.00 | 38 | 1013.3 |
| 20260901211503 | 38 | 104 | 8.0 | 16.1 | 0.00 | 0.00 | 0.00 | 38 | 1013.4 |
| 20260901211004 | 38 | 106 | 8.0 | 17.7 | 0.00 | 0.00 | 0.00 | 38 | 1013.5 |
| 20260901210504 | 38 | 86 | 6.4 | 17.7 | 0.00 | 0.00 | 0.00 | 38 | 1013.5 |
| 20260901210004 | 38 | 79 | 9.7 | 22.5 | 0.00 | 0.00 | 0.00 | 39 | 1013.6 |
| 20260901205504 | 38 | 86 | 8.0 | 22.5 | 0.00 | 0.00 | 0.00 | 39 | 1013.8 |
| 20260901205004 | 38 | 58 | 6.4 | 16.1 | 0.00 | 0.00 | 0.00 | 39 | 1013.7 |
| 20260901204504 | 38 | 51 | 6.4 | 12.9 | 0.00 | 0.00 | 0.00 | 40 | 1013.7 |
| 20260901204003 | 37 | 102 | 8.0 | 19.3 | 0.00 | 0.00 | 0.00 | 42 | 1013.9 |
| 20260901203504 | 37 | 120 | 6.4 | 19.3 | 0.00 | 0.00 | 0.00 | 42 | 1014.0 |
| 20260901203004 | 36 | 87 | 6.4 | 16.1 | 0.00 | 0.00 | 0.00 | 42 | 1014.1 |
| 20260901202504 | 36 | 105 | 8.0 | 17.7 | 0.00 | 0.00 | 0.00 | 41 | 1014.1 |
| 20260901202004 | 37 | 117 | 6.4 | 17.7 | 0.00 | 0.00 | 0.00 | 41 | 1014.2 |
| 20260901201504 | 36 | 143 | 6.4 | 16.1 | 0.00 | 0.00 | 0.00 | 44 | 1014.3 |
| 20260901201004 | 36 | 143 | 6.4 | 16.1 | 0.00 | 0.00 | 0.00 | 44 | 1014.4 |
| 20260901200503 | 36 | 134 | 6.4 | 16.1 | 0.00 | 0.00 | 0.00 | 44 | 1014.4 |
| 20260901200004 | 36 | 125 | 8.0 | 16.1 | 0.00 | 0.00 | 0.00 | 43 | 1014.5 |
| 20260901195504 | 36 | 114 | 6.4 | 16.1 | 0.00 | 0.00 | 0.00 | 43 | 1014.6 |
| 20260901195004 | 37 | 152 | 3.2 | 12.9 | 0.00 | 0.00 | 0.00 | 44 | 1014.7 |
| 20260901194503 | 37 | 152 | 3.2 | 12.9 | 0.00 | 0.00 | 0.00 | 43 | 1014.8 |
| 20260901194004 | 37 | 149 | 3.2 | 8.0 | 0.00 | 0.00 | 0.00 | 42 | 1014.8 |
| 20260901193504 | 37 | 173 | 3.2 | 9.7 | 0.00 | 0.00 | 0.00 | 42 | 1014.8 |
| 20260901193004 | 37 | 113 | 3.2 | 11.3 | 0.00 | 0.00 | 0.00 | 42 | 1014.9 |
| 20260901192504 | 37 | 57 | 6.4 | 11.3 | 0.00 | 0.00 | 0.00 | 44 | 1015.0 |
| 20260901192004 | 36 | 148 | 3.2 | 11.3 | 0.00 | 0.00 | 0.00 | 45 | 1015.0 |
| 20260901191504 | 36 | 170 | 3.2 | 11.3 | 0.00 | 0.00 | 0.00 | 44 | 1015.0 |
| 20260901191003 | 36 | 132 | 6.4 | 11.3 | 0.00 | 0.00 | 0.00 | 44 | 1015.2 |
| 20260901190504 | 36 | 99 | 3.2 | 11.3 | 0.00 | 0.00 | 0.00 | 43 | 1015.2 |
| 20260901190004 | 37 | 126 | 3.2 | 11.3 | 0.00 | 0.00 | 0.00 | 44 | 1015.3 |
| 20260901185504 | 37 | 105 | 3.2 | 12.9 | 0.00 | 0.00 | 0.00 | 42 | 1015.5 |
| 20260901185004 | 37 | 104 | 3.2 | 19.3 | 0.00 | 0.00 | 0.00 | 43 | 1015.4 |
| 20260901184504 | 38 | 97 | 6.4 | 19.3 | 0.00 | 0.00 | 0.00 | 41 | 1015.5 |
| 20260901184003 | 38 | 124 | 8.0 | 19.3 | 0.00 | 0.00 | 0.00 | 42 | 1015.6 |
| 20260901183504 | 38 | 152 | 8.0 | 17.7 | 0.00 | 0.00 | 0.00 | 42 | 1015.8 |
| 20260901183024 | 38 | 126 | 9.7 | 20.9 | 0.00 | 0.00 | 0.00 | 42 | 1015.8 |
| 20260901182524 | 37 | 126 | 8.0 | 20.9 | 0.00 | 0.00 | 0.00 | 44 | 1016.0 |
| 20260901182004 | 37 | 137 | 8.0 | 19.3 | 0.00 | 0.00 | 0.00 | 44 | 1015.9 |
| 20260901181504 | 37 | 145 | 9.7 | 19.3 | 0.00 | 0.00 | 0.00 | 45 | 1016.0 |
| 20260901181003 | 36 | 145 | 8.0 | 20.9 | 0.00 | 0.00 | 0.00 | 45 | 1016.1 |
| 20260901180503 | 36 | 109 | 3.2 | 20.9 | 0.00 | 0.00 | 0.00 | 47 | 1016.2 |
| 20260901180004 | 36 | 45 | 3.2 | 11.3 | 0.00 | 0.00 | 0.00 | 47 | 1016.4 |
| 20260901175503 | 36 | 59 | 6.4 | 11.3 | 0.00 | 0.00 | 0.00 | 48 | 1016.5 |
| 20260901175003 | 36 | 86 | 8.0 | 25.7 | 0.00 | 0.00 | 0.00 | 48 | 1016.6 |
| 20260901174503 | 36 | 101 | 8.0 | 25.7 | 0.00 | 0.00 | 0.00 | 49 | 1016.7 |
| 20260901174003 | 35 | 99 | 6.4 | 27.4 | 0.00 | 0.00 | 0.00 | 50 | 1016.7 |
| 20260901173503 | 35 | 119 | 6.4 | 27.4 | 0.00 | 0.00 | 0.00 | 50 | 1016.8 |
| 20260901173003 | 35 | 159 | 6.4 | 16.1 | 0.00 | 0.00 | 0.00 | 51 | 1016.8 |
| 20260901172524 | 35 | 149 | 8.0 | 17.7 | 0.00 | 0.00 | 0.00 | 51 | 1016.8 |
| 20260901172003 | 35 | 139 | 8.0 | 19.3 | 0.00 | 0.00 | 0.00 | 51 | 1017.0 |
| 20260901171504 | 35 | 127 | 6.4 | 16.1 | 0.00 | 0.00 | 0.00 | 51 | 1017.0 |
| 20260901171003 | 34 | 30 | 6.4 | 17.7 | 0.00 | 0.00 | 0.00 | 53 | 1017.0 |
| 20260901170503 | 34 | 58 | 6.4 | 17.7 | 0.00 | 0.00 | 0.00 | 54 | 1017.0 |
| 20260901170004 | 34 | 85 | 6.4 | 16.1 | 0.00 | 0.00 | 0.00 | 53 | 1017.1 |
| 20260901165503 | 33 | 110 | 8.0 | 20.9 | 0.00 | 0.00 | 0.00 | 54 | 1017.2 |
| 20260901165004 | 33 | 140 | 8.0 | 20.9 | 0.00 | 0.00 | 0.00 | 54 | 1017.2 |
| 20260901164504 | 33 | 124 | 3.2 | 17.7 | 0.00 | 0.00 | 0.00 | 55 | 1017.2 |
| 20260901164004 | 33 | 112 | 3.2 | 12.9 | 0.00 | 0.00 | 0.00 | 56 | 1017.1 |
| 20260901163503 | 33 | 136 | 8.0 | 20.9 | 0.00 | 0.00 | 0.00 | 56 | 1017.2 |
| 20260901163003 | 32 | 136 | 9.7 | 20.9 | 0.00 | 0.00 | 0.00 | 57 | 1017.4 |
| 20260901162504 | 32 | 142 | 8.0 | 16.1 | 0.00 | 0.00 | 0.00 | 58 | 1017.4 |
| 20260901162003 | 32 | 150 | 6.4 | 12.9 | 0.00 | 0.00 | 0.00 | 58 | 1017.4 |
| 20260901161503 | 32 | 169 | 3.2 | 9.7 | 0.00 | 0.00 | 0.00 | 61 | 1017.6 |
| 20260901161003 | 32 | 115 | 6.4 | 9.7 | 0.00 | 0.00 | 0.00 | 61 | 1017.6 |
| 20260901160503 | 31 | 87 | 6.4 | 11.3 | 0.00 | 0.00 | 0.00 | 62 | 1017.6 |
| 20260901160003 | 31 | 108 | 3.2 | 11.3 | 0.00 | 0.00 | 0.00 | 61 | 1017.6 |
| 20260901155503 | 31 | 99 | 3.2 | 9.7 | 0.00 | 0.00 | 0.00 | 62 | 1017.6 |
| 20260901155025 | 31 | 14 | 3.2 | 9.7 | 0.00 | 0.00 | 0.00 | 64 | 1017.6 |
| 20260901154504 | 31 | 278 | 3.2 | 8.0 | 0.00 | 0.00 | 0.00 | 67 | 1017.5 |
| 20260901154003 | 30 | 274 | 3.2 | 8.0 | 0.00 | 0.00 | 0.00 | 68 | 1017.5 |
| 20260901153503 | 30 | 292 | 3.2 | 11.3 | 0.00 | 0.00 | 0.00 | 71 | 1017.5 |
| 20260901153003 | 30 | 274 | 3.2 | 11.3 | 0.00 | 0.00 | 0.00 | 71 | 1017.4 |
| 20260901152524 | 30 | 219 | 3.2 | 11.3 | 0.00 | 0.00 | 0.00 | 72 | 1017.4 |
| 20260901152003 | 30 | 217 | 1.6 | 8.0 | 0.00 | 0.00 | 0.00 | 73 | 1017.4 |
| 20260901151503 | 29 | 250 | 1.6 | 6.4 | 0.00 | 0.00 | 0.00 | 73 | 1017.4 |
| 20260901151024 | 29 | 257 | 3.2 | 8.0 | 0.00 | 0.00 | 0.00 | 74 | 1017.4 |
| 20260901150503 | 28 | 242 | 3.2 | 9.7 | 0.00 | 0.00 | 0.00 | 76 | 1017.5 |
| 20260901150003 | 28 | 242 | 3.2 | 8.0 | 0.00 | 0.00 | 0.00 | 76 | 1017.5 |
| 20260901145503 | 28 | 286 | 3.2 | 8.0 | 0.00 | 0.00 | 0.00 | 77 | 1017.6 |
| 20260901145003 | 28 | 293 | 3.2 | 8.0 | 0.00 | 0.00 | 0.00 | 78 | 1017.6 |
| 20260901144503 | 28 | 249 | 3.2 | 8.0 | 0.00 | 0.00 | 0.00 | 80 | 1017.6 |
| 20260901144003 | 27 | 208 | 3.2 | 8.0 | 0.00 | 0.00 | 0.00 | 82 | 1017.7 |
| 20260901143503 | 27 | 183 | 3.2 | 8.0 | 0.00 | 0.00 | 0.00 | 83 | 1017.6 |
| 20260901143003 | 27 | 190 | 3.2 | 8.0 | 0.00 | 0.00 | 0.00 | 85 | 1017.7 |
| 20260901142503 | 26 | 234 | 3.2 | 8.0 | 0.00 | 0.00 | 0.00 | 87 | 1017.7 |
| 20260901142003 | 26 | 258 | 6.4 | 12.9 | 0.00 | 0.00 | 0.00 | 89 | 1017.8 |
| 20260901141524 | 26 | 268 | 6.4 | 12.9 | 0.00 | 0.00 | 0.00 | 90 | 1017.9 |
| 20260901141003 | 26 | 266 | 3.2 | 12.9 | 0.00 | 0.00 | 0.00 | 91 | 1017.8 |
| 20260901140524 | 25 | 260 | 3.2 | 11.3 | 0.00 | 0.00 | 0.00 | 92 | 1017.9 |
| 20260901140003 | 25 | 251 | 3.2 | 8.0 | 0.00 | 0.00 | 0.00 | 92 | 1017.9 |
| 20260901135503 | 25 | 236 | 3.2 | 8.0 | 0.00 | 0.00 | 0.00 | 92 | 1017.9 |
| 20260901135003 | 25 | 215 | 1.6 | 6.4 | 0.00 | 0.00 | 0.00 | 92 | 1017.8 |
| 20260901134503 | 25 | 176 | 1.6 | 3.2 | 0.00 | 0.00 | 0.00 | 92 | 1017.6 |
| 20260901134003 | 24 | 176 | 0.0 | 1.6 | 0.00 | 0.00 | 0.00 | 92 | 1017.5 |
| 20260901133503 | 24 | 176 | 0.0 | 3.2 | 0.00 | 0.00 | 0.00 | 92 | 1017.5 |
| 20260901133003 | 23 | 176 | 1.6 | 3.2 | 0.00 | 0.00 | 0.00 | 91 | 1017.5 |
| 20260901132503 | 23 | 176 | 0.0 | 3.2 | 0.00 | 0.00 | 0.00 | 91 | 1017.5 |
| 20260901132003 | 23 | 176 | 0.0 | 1.6 | 0.00 | 0.00 | 0.00 | 90 | 1017.4 |
| 20260901131503 | 23 | 0 | 0.0 | 0.0 | 0.00 | 0.00 | 0.00 | 89 | 1017.4 |
| 20260901131003 | 23 | 0 | 0.0 | 0.0 | 0.00 | 0.00 | 0.00 | 89 | 1017.4 |
| 20260901130503 | 23 | 0 | 0.0 | 0.0 | 0.00 | 0.00 | 0.00 | 88 | 1017.3 |
| 20260901130004 | 23 | 0 | 0.0 | 0.0 | 0.00 | 0.00 | 0.00 | 88 | 1017.3 |
| 20260901125503 | 23 | 0 | 0.0 | 0.0 | 0.00 | 0.00 | 0.00 | 88 | 1017.2 |
| 20260901125024 | 23 | 0 | 0.0 | 0.0 | 0.00 | 0.00 | 0.00 | 87 | 1017.2 |
| 20260901124504 | 22 | 0 | 0.0 | 0.0 | 0.00 | 0.00 | 0.00 | 87 | 1017.2 |
| 20260901124024 | 22 | 176 | 0.0 | 1.6 | 0.00 | 0.00 | 0.00 | 87 | 1017.2 |
| 20260901123503 | 23 | 176 | 0.0 | 1.6 | 0.00 | 0.00 | 0.00 | 86 | 1017.1 |
| 20260901123003 | 23 | 176 | 0.0 | 1.6 | 0.00 | 0.00 | 0.00 | 87 | 1017.1 |
| 20260901122524 | 23 | 176 | 0.0 | 1.6 | 0.00 | 0.00 | 0.00 | 86 | 1017.1 |
| 20260901122003 | 23 | 0 | 0.0 | 0.0 | 0.00 | 0.00 | 0.00 | 86 | 1017.0 |
| 20260901121504 | 23 | 0 | 0.0 | 0.0 | 0.00 | 0.00 | 0.00 | 86 | 1016.9 |
| 20260901121004 | 23 | 0 | 0.0 | 0.0 | 0.00 | 0.00 | 0.00 | 86 | 1017.0 |
| 20260901120504 | 23 | 176 | 0.0 | 1.6 | 0.00 | 0.00 | 0.00 | 86 | 1016.9 |
| 20260901120004 | 23 | 176 | 0.0 | 1.6 | 0.00 | 0.00 | 0.00 | 86 | 1016.9 |
| 20260901115504 | 23 | 176 | 0.0 | 1.6 | 0.00 | 0.00 | 0.00 | 86 | 1017.0 |
| 20260901115004 | 23 | 176 | 0.0 | 1.6 | 0.00 | 0.00 | 0.00 | 86 | 1017.0 |
| 20260901114504 | 23 | 176 | 0.0 | 1.6 | 0.00 | 0.00 | 0.00 | 85 | 1016.9 |
| 20260901114004 | 23 | 176 | 0.0 | 1.6 | 0.00 | 0.00 | 0.00 | 86 | 1016.8 |